Terminal Aerodrome Forecast
Issued by NWS

Home | Current Version | Previous Version | Graphics & Text | Print | Product List | Glossary On
Versions: 1 2 3 4 5 6 7 8 9 10 11 12 13 14 15 16 17 18 19 20 21 22 23 24 25 26 27 28 29 30 31 32 33
000
FTUS43 KLOT 241900 AAA
TAFORD
TAF AMD
KORD 241959Z 2420/2524 23006KT P6SM BKN250
     FM250000 19004KT P6SM BKN080
     FM250300 21005KT P6SM BKN030
     FM250600 23004KT 4SM BR SCT015 BKN030
     FM251500 30007KT P6SM FEW250=

USA.gov is the U.S. government's official web portal to all federal, state and local government web resources and services.